Regional Weather Roundup
Issued by NWS

Home | Current Version | Previous Version | Graphics & Text | Print | Product List | Glossary On
Versions: 1 2 3 4 5 6 7 8 9 10 11 12 13 14 15 16 17 18 19 20 21 22 23 24 25 26 27 28 29 30 31 32 33 34 35 36 37 38 39 40 41 42 43 44 45 46 47 48 49 50
000
ASUS43 KLSX 271059
RWRMO

WEATHER SUMMARY FOR MISSOURI
NATIONAL WEATHER SERVICE SPRINGFIELD MO
500 AM CST THU NOV 27 2014

NOTE: "FAIR" INDICATES FEW OR NO CLOUDS BELOW 12,000 FEET WITH NO
       SIGNIFICANT WEATHER AND/OR OBSTRUCTIONS TO VISIBILITY.
       CURRENT SKY AND/OR WEATHER CONDITIONS ARE NOT AVAILABLE FOR
       CHILLICOTHE AND FARMINGTON.

MOZ001>031-035>038-043-044-053-054-271200-
...NORTHERN AND WESTERN MISSOURI...

CITY           SKY/WX    TMP DP  RH WIND       PRES   REMARKS
KANSAS CTY INT CLOUDY    25  20  81 N8        30.47S WCI  16
KANSAS C DTWN  CLOUDY    28  20  71 N9        30.48F WCI  19
LEE`S SUMMIT   CLOUDY    26  20  77 N9        30.47S WCI  17
ST JOSEPH      CLOUDY    24  19  81 N9        30.50S WCI  14
CHILLICOTHE      N/A     27  21  78 NW6       30.49R WCI  20
KIRKSVILLE     CLOUDY    26  22  84 NW9       30.43R WCI  17

$$
MOZ066>068-077>081-088>096-101>105-271200-
...SOUTHWEST MISSOURI...

CITY           SKY/WX    TMP DP  RH WIND       PRES   REMARKS
SPRINGFIELD    CLOUDY    30  23  75 NW16      30.44R WCI  19
JOPLIN         FAIR      25  20  81 CALM      30.48R

$$
MOZ032>034-039>042-045>050-055>058-069>072-271200-
...CENTRAL MISSOURI...

CITY           SKY/WX    TMP DP  RH WIND       PRES   REMARKS
COLUMBIA       CLOUDY    31  27  85 NW7       30.41S WCI  24
JEFFERSON CITY CLOUDY    32  25  75 NW8       30.43R WCI  25
ROLLA          CLOUDY    30  27  88 NW10      30.36R WCI  21
SEDALIA        CLOUDY    29  24  82 NW13G23   30.47R WCI  19
OSAGE BEACH    CLOUDY    32  25  74 NW5       30.42R WCI  27

$$
MOZ051-052-059>065-271200-
...EAST CENTRAL MISSOURI...

CITY           SKY/WX    TMP DP  RH WIND       PRES   REMARKS
ST LOUIS INTL  CLOUDY    30  24  78 NW12      30.39R WCI  20
SPIRIT OF STL  CLOUDY    30  25  81 NW8       30.40R WCI  22
ST CHARLES     CLOUDY    28  23  81 NW13      30.40R WCI  17

$$
MOZ072>076-082>087-097>100-106>115-271200-
...SOUTH CENTRAL AND SOUTHEAST MISSOURI...

CITY           SKY/WX    TMP DP  RH WIND       PRES   REMARKS
CAPE GIRARDEAU CLOUDY    34  31  88 N13       30.36R WCI  25
FARMINGTON     CLOUDY    30  27  86 N10       30.36R WCI  21
POPLAR BLUFF   CLOUDY    37  28  70 NW10      30.36R WCI  30
WEST PLAINS    CLOUDY    31  26  82 NW8       30.38R WCI  23

$$


USA.gov is the U.S. government's official web portal to all federal, state and local government web resources and services.